• In Spain
  • List of Countries
  • For 7 days
  • Water Temperature
  • Satellite Maps
  • Weather Map
  • Weather Widgets
  • user-avatar
    Login

    Hourly Weather Artashat

    Today, 17 October, Wednesday

    Time Temperature Precipitation Wind Pressure Humidity
    00:00 +9°C° 0 mm 1 mps 606 mmHg 55%
    01:00 +8°C° 0 mm 1 mps 606 mmHg 58%
    02:00 +8°C° 0 mm 1 mps 606 mmHg 60%
    03:00 +7°C° 0 mm 1 mps 606 mmHg 63%
    04:00 +7°C° 0 mm 1 mps 605 mmHg 65%
    05:00 +6°C° 0 mm 1 mps 605 mmHg 68%
    06:00 +6°C° 0 mm 1 mps 605 mmHg 71%
    07:00 +8°C° 0 mm 1 mps 606 mmHg 63%
    08:00 +10°C° 0 mm 1 mps 607 mmHg 56%
    09:00 +12°C° 0 mm 1 mps 607 mmHg 49%
    10:00 +13°C° 0 mm 1 mps 608 mmHg 46%
    11:00 +14°C° 0 mm 2 mps 608 mmHg 43%
    12:00 +15°C° 0 mm 2 mps 608 mmHg 39%
    13:00 +15°C° 0 mm 2 mps 608 mmHg 38%
    14:00 +15°C° 0 mm 2 mps 607 mmHg 37%
    15:00 +16°C° 0 mm 2 mps 607 mmHg 36%
    16:00 +14°C° 0 mm 2 mps 607 mmHg 41%
    17:00 +13°C° 0 mm 1 mps 606 mmHg 46%
    18:00 +11°C° 0 mm 1 mps 605 mmHg 50%
    19:00 +11°C° 0 mm 1 mps 605 mmHg 53%
    20:00 +10°C° 0 mm 1 mps 605 mmHg 57%
    21:00 +8°C° 0 mm 0 mps 605 mmHg 60%
    22:00 +8°C° 0 mm 0 mps 605 mmHg 62%
    23:00 +7°C° 0 mm 0 mps 605 mmHg 64%

    Tomorrow, 18 October, Thursday

    Time Temperature Precipitation Wind Pressure Humidity
    00:00 +7°C° 0 mm 0 mps 604 mmHg 66%
    01:00 +6°C° 0 mm 0 mps 604 mmHg 68%
    02:00 +6°C° 0 mm 0 mps 604 mmHg 69%
    03:00 +5°C° 0 mm 0 mps 604 mmHg 71%
    04:00 +5°C° 0 mm 0 mps 603 mmHg 72%
    05:00 +5°C° 0 mm 0 mps 603 mmHg 72%
    06:00 +4°C° 0 mm 0 mps 603 mmHg 73%
    07:00 +7°C° 0 mm 0 mps 604 mmHg 64%
    08:00 +9°C° 0 mm 0 mps 605 mmHg 55%
    09:00 +11°C° 0 mm 0 mps 606 mmHg 45%
    10:00 +14°C° 0 mm 1 mps 606 mmHg 41%
    11:00 +15°C° 0 mm 1 mps 607 mmHg 37%
    12:00 +16°C° 0 mm 1 mps 607 mmHg 33%
    13:00 +16°C° 0 mm 1 mps 607 mmHg 31%
    14:00 +17°C° 0 mm 2 mps 606 mmHg 30%
    15:00 +17°C° 0 mm 2 mps 606 mmHg 29%
    16:00 +15°C° 0 mm 1 mps 605 mmHg 34%
    17:00 +13°C° 0 mm 1 mps 605 mmHg 38%
    18:00 +11°C° 0 mm 1 mps 604 mmHg 43%
    19:00 +11°C° 0 mm 1 mps 604 mmHg 46%
    20:00 +10°C° 0 mm 1 mps 604 mmHg 49%
    21:00 +10°C° 0 mm 1 mps 604 mmHg 52%
    22:00 +9°C° 0 mm 1 mps 604 mmHg 54%
    23:00 +9°C° 0 mm 1 mps 604 mmHg 56%

    Day after tomorrow, 19 October, Friday

    Time Temperature Precipitation Wind Pressure Humidity
    00:00 +8°C° 0 mm 1 mps 604 mmHg 58%
    01:00 +7°C° 0 mm 0 mps 604 mmHg 60%
    02:00 +6°C° 0 mm 0 mps 604 mmHg 62%
    03:00 +6°C° 0 mm 0 mps 603 mmHg 63%
    04:00 +5°C° 0 mm 0 mps 603 mmHg 64%
    05:00 +5°C° 0 mm 0 mps 603 mmHg 65%
    06:00 +5°C° 0 mm 0 mps 603 mmHg 66%
    07:00 +8°C° 0 mm 1 mps 604 mmHg 56%
    08:00 +11°C° 0 mm 1 mps 605 mmHg 47%
    09:00 +13°C° 0 mm 1 mps 607 mmHg 38%
    10:00 +14°C° 0 mm 1 mps 607 mmHg 35%
    11:00 +15°C° 0 mm 1 mps 607 mmHg 32%
    12:00 +17°C° 0 mm 2 mps 607 mmHg 29%
    13:00 +17°C° 0 mm 2 mps 607 mmHg 29%
    14:00 +17°C° 0 mm 2 mps 607 mmHg 28%
    15:00 +18°C° 0 mm 2 mps 606 mmHg 27%
    16:00 +16°C° 0 mm 2 mps 606 mmHg 31%
    17:00 +14°C° 0 mm 1 mps 605 mmHg 36%
    18:00 +12°C° 0 mm 1 mps 605 mmHg 40%
    19:00 +12°C° 0 mm 1 mps 605 mmHg 42%
    20:00 +11°C° 0 mm 1 mps 605 mmHg 43%
    21:00 +11°C° 0 mm 1 mps 605 mmHg 45%
    22:00 +10°C° 0 mm 1 mps 604 mmHg 46%
    23:00 +10°C° 0 mm 1 mps 604 mmHg 48%

    20 October, Saturday

    Time Temperature Precipitation Wind Pressure Humidity
    00:00 +9°C° 0 mm 1 mps 604 mmHg 49%
    01:00 +9°C° 0 mm 1 mps 604 mmHg 50%
    02:00 +8°C° 0 mm 1 mps 603 mmHg 51%
    03:00 +7°C° 0 mm 0 mps 603 mmHg 53%
    04:00 +7°C° 0 mm 0 mps 603 mmHg 54%
    05:00 +6°C° 0 mm 0 mps 603 mmHg 55%
    06:00 +6°C° 0 mm 0 mps 603 mmHg 57%
    07:00 +10°C° 0 mm 1 mps 604 mmHg 49%
    08:00 +12°C° 0 mm 1 mps 605 mmHg 41%
    09:00 +14°C° 0 mm 1 mps 606 mmHg 34%
    10:00 +15°C° 0 mm 1 mps 606 mmHg 31%
    11:00 +16°C° 0 mm 1 mps 606 mmHg 29%
    12:00 +18°C° 0 mm 1 mps 606 mmHg 27%
    13:00 +18°C° 0 mm 2 mps 606 mmHg 26%
    14:00 +18°C° 0 mm 2 mps 606 mmHg 26%
    15:00 +18°C° 0 mm 2 mps 606 mmHg 26%
    16:00 +16°C° 0 mm 2 mps 605 mmHg 30%
    17:00 +15°C° 0 mm 1 mps 605 mmHg 33%
    18:00 +13°C° 0 mm 1 mps 604 mmHg 37%
    19:00 +13°C° 0 mm 1 mps 604 mmHg 38%
    20:00 +13°C° 0 mm 1 mps 604 mmHg 40%
    21:00 +12°C° 0 mm 1 mps 604 mmHg 41%
    22:00 +12°C° 0 mm 1 mps 604 mmHg 43%
    23:00 +11°C° 0 mm 1 mps 603 mmHg 45%

    21 October, Sunday

    Time Temperature Precipitation Wind Pressure Humidity
    00:00 +11°C° 0 mm 1 mps 603 mmHg 46%
    01:00 +10°C° 0 mm 1 mps 603 mmHg 48%
    02:00 +10°C° 0 mm 1 mps 603 mmHg 49%
    03:00 +10°C° 0 mm 1 mps 602 mmHg 50%
    04:00 +9°C° 0 mm 1 mps 602 mmHg 51%
    05:00 +9°C° 0 mm 1 mps 602 mmHg 52%
    06:00 +9°C° 0 mm 1 mps 602 mmHg 52%
    07:00 +11°C° 0 mm 1 mps 603 mmHg 48%
    08:00 +12°C° 0 mm 1 mps 604 mmHg 43%
    09:00 +14°C° 0 mm 1 mps 604 mmHg 39%
    10:00 +14°C° 0 mm 1 mps 604 mmHg 37%
    11:00 +15°C° 0 mm 2 mps 604 mmHg 36%
    12:00 +16°C° 0 mm 2 mps 604 mmHg 34%
    13:00 +16°C° 0 mm 2 mps 604 mmHg 34%
    14:00 +16°C° 0 mm 2 mps 604 mmHg 34%
    15:00 +16°C° 0 mm 2 mps 603 mmHg 34%
    16:00 +15°C° 0 mm 2 mps 603 mmHg 38%
    17:00 +14°C° 0 mm 2 mps 603 mmHg 42%
    18:00 +12°C° 0 mm 1 mps 602 mmHg 46%
    19:00 +12°C° 0 mm 1 mps 602 mmHg 49%
    20:00 +11°C° 0 mm 1 mps 602 mmHg 51%
    21:00 +11°C° 0 mm 1 mps 602 mmHg 53%
    22:00 +10°C° 0 mm 1 mps 601 mmHg 55%
    23:00 +10°C° 0 mm 1 mps 601 mmHg 57%

    22 October, Monday

    Time Temperature Precipitation Wind Pressure Humidity
    00:00 +10°C° 0 mm 1 mps 601 mmHg 59%
    01:00 +9°C° 0 mm 1 mps 600 mmHg 60%
    02:00 +9°C° 0 mm 1 mps 600 mmHg 62%
    03:00 +8°C° 0 mm 1 mps 600 mmHg 64%
    04:00 +8°C° 0 mm 1 mps 600 mmHg 65%
    05:00 +7°C° 0 mm 1 mps 600 mmHg 65%
    06:00 +7°C° 0 mm 1 mps 600 mmHg 66%
    07:00 +9°C° 0 mm 1 mps 601 mmHg 59%
    08:00 +11°C° 0 mm 1 mps 602 mmHg 51%
    09:00 +13°C° 0 mm 1 mps 603 mmHg 44%
    10:00 +14°C° 0 mm 1 mps 603 mmHg 41%
    11:00 +15°C° 0 mm 2 mps 603 mmHg 37%
    12:00 +16°C° 0 mm 2 mps 603 mmHg 34%
    13:00 +16°C° 0 mm 2 mps 603 mmHg 33%
    14:00 +16°C° 0 mm 2 mps 603 mmHg 33%
    15:00 +16°C° 0 mm 2 mps 603 mmHg 32%
    16:00 +15°C° 0 mm 2 mps 603 mmHg 37%
    17:00 +13°C° 0 mm 2 mps 603 mmHg 41%
    18:00 +12°C° 0 mm 1 mps 603 mmHg 46%
    19:00 +11°C° 0 mm 1 mps 603 mmHg 48%
    20:00 +11°C° 0 mm 1 mps 603 mmHg 51%
    21:00 +10°C° 0 mm 1 mps 603 mmHg 53%
    22:00 +10°C° 0 mm 1 mps 603 mmHg 55%
    23:00 +9°C° 0 mm 1 mps 603 mmHg 56%
    Show more